Location: Chavannes
(47.1090°N, 0.2226°W)
Time: 14:35:35
(UTC+00:00)

Orbus 7S? - Pass Details

Date: 16 October 2021
Orbit: 328 x 6409 km, 56.9° (Epoch: 01 November)

Event Time Altitude Azimuth Distance (km) Brightness Sun altitude
Rises 19:27:51 0° 302° (WNW) 5,988 9.8 -23.9°
Reaches altitude 10° 19:33:02 10° 306° (NW) 4,009 8.6 -24.7°
Maximum altitude 19:41:31 60° 25° (NNE) 919 4.2 -26.1°
Enters shadow 19:41:37 60° 32° (NNE) 910 4.2 -26.2°
